sat.trackr.live / text

‹ back to catalog

STARLINK-34454

NORAD 64357 · 2025-126P

PAYLOAD ACTIVE UNKNOWN

§ Identity

Operator
Country
US
Launch date
2025-06-13
Launch site
AFWTR
Launch vehicle
Mass (kg)
RCS (m²)

Purposes: comms

External: N2YO · Heavens-Above · Gunter

§ Orbital elements

Epoch: 2026-09-20T09:17:20.518656Z

Period
94.09 min
Inclination
70.0018°
Eccentricity
0.0003885
Mean motion
15.30429854 rev/d
Perigee alt
471.9 km
Apogee alt
477.2 km
Semi-major
6,852.7 km
B*
5.2662e-4
RAAN
261.2417°
Arg perigee
271.2287°
Mean anomaly
88.8444°
Rev number
6,990

§ Raw data

STARLINK-344541 64357U 25126P   26263.38704304  .00015444  00000+0  52662-3 0  99902 64357  70.0018 261.2417 0003885 271.2287  88.8444 15.30429854 69900

JSON: /api/v1/satellites/64357 · /tle

For live sub-satellite position, see the globe view (requires WebGL).

§ Visibility from observer

Set your observer location to see the next 7 days of passes ≥ 10°. The values pass through the URL so the page stays shareable.

No JS? Fill the form by hand. The geolocation button needs JavaScript.